Simultaneous Nadir Overpasses (SNOs) Predictions

Prediction of SNOs over PacNW region [( 10.00, 139.50) to ( 22.70, 165.60)] between NOAA-19 and NPP Satellites:

Table of predicted SNOs over PacNW region for the next 30.0 days since TLE Epoch: 1/4/2014
Index Date (NOAA-19) Time (NOAA-19) NOAA-19 Lat,Lon Date (NPP) Time (NPP) NPP Lat,Lon Distance(km) Time Diff (sec)
1 01/13/2014 15:17:19 22.62, 160.66 01/13/2014 15:19:56 23.74, 155.77 515.12 157
2 01/14/2014 02:33:44 22.65, 164.09 01/14/2014 02:32:42 21.88, 160.17 411.87 62
3 01/14/2014 04:14:44 18.93, 139.51 01/14/2014 04:13:08 18.13, 135.72 409.04 96
4 01/26/2014 03:41:32 10.09, 149.40 01/26/2014 03:45:08 8.25, 144.39 586.78 216
5 01/26/2014 16:17:54 21.55, 145.44 01/26/2014 16:17:35 22.43, 141.18 449.45 19
6 01/27/2014 03:34:04 22.69, 149.12 01/27/2014 03:30:27 23.55, 145.50 382.03 217
